sat.trackr.live / text

‹ back to catalog

SITRO-AIS 9 (SHCHUKIN)

NORAD 57201 · 2023-091AM

PAYLOAD ACTIVE UNKNOWN

§ Identity

Operator
Country
CIS
Launch date
2023-06-27
Launch site
VOSTO
Launch vehicle
Mass (kg)
RCS (m²)

Purposes: tech_demo

External: N2YO · Heavens-Above · Gunter

§ Orbital elements

Epoch: 2026-09-19T21:33:05.738976Z

Period
93.43 min
Inclination
97.4988°
Eccentricity
0.0007452
Mean motion
15.41336119 rev/d
Perigee alt
437.1 km
Apogee alt
447.2 km
Semi-major
6,820.3 km
B*
3.6948e-4
RAAN
335.5383°
Arg perigee
94.7279°
Mean anomaly
265.4819°
Rev number
17,932

§ Raw data

SITRO-AIS 9 (SHCHUKIN)1 57201U 23091AM  26262.89798309  .00015343  00000+0  36948-3 0  99992 57201  97.4988 335.5383 0007452  94.7279 265.4819 15.41336119179329

JSON: /api/v1/satellites/57201 · /tle

For live sub-satellite position, see the globe view (requires WebGL).

§ Visibility from observer

Set your observer location to see the next 7 days of passes ≥ 10°. The values pass through the URL so the page stays shareable.

No JS? Fill the form by hand. The geolocation button needs JavaScript.

§ Radio — SatNOGS DB

ModeDescriptionDownlinkUplink
GMSK USP Mode U - GMSK USP 2K4 TLM 401.260 MHz

1 transmitter · refreshed weekly from db.satnogs.org